N750GK KHCR-KSBA

Flight info

Callsign N750GK
Flight time 1h 26m
Altitude 38000
Route COOLI6 COOLI WAATS SPRUZ CANDA GVO
Aircraft C750/M-VGDW/C

Departure

Time 2026-05-09 00:43
Airport Heber Valley Airport (KHCR)

Arrival

Time 2026-05-09 02:09
Airport Santa Barbara Municipal Airport (KSBA)
Time Latitude Longitude Altitude Speed Heading
2026-05-09 00:35 40.48342 -111.42480 5626 ft 0 kts 78°
2026-05-09 00:39 40.48343 -111.42476 5626 ft 2 kts 66°
2026-05-09 00:39 40.48360 -111.42459 5627 ft 4 kts 34°
2026-05-09 00:39 40.48385 -111.42433 5628 ft 5 kts 44°
2026-05-09 00:40 40.48411 -111.42394 5629 ft 6 kts 49°
2026-05-09 00:40 40.48451 -111.42330 5630 ft 13 kts 50°
2026-05-09 00:40 40.48518 -111.42226 5633 ft 15 kts 49°
2026-05-09 00:41 40.48642 -111.42034 5639 ft 14 kts 50°
2026-05-09 00:41 40.48698 -111.41947 5642 ft 11 kts 50°
2026-05-09 00:41 40.48743 -111.41902 5644 ft 6 kts 354°
2026-05-09 00:41 40.48775 -111.41938 5644 ft 5 kts 298°
2026-05-09 00:42 40.48761 -111.41984 5642 ft 9 kts 230°
2026-05-09 00:42 40.48494 -111.42398 5628 ft 111 kts 230°
2026-05-09 00:42 40.47849 -111.43386 5654 ft 162 kts 231°
2026-05-09 00:42 40.47078 -111.44541 6225 ft 172 kts 231°
2026-05-09 00:43 40.46269 -111.45756 6979 ft 180 kts 232°
2026-05-09 00:43 40.45416 -111.47019 7714 ft 190 kts 231°
2026-05-09 00:43 40.44772 -111.48547 8380 ft 196 kts 261°
2026-05-09 00:43 40.44619 -111.50354 9206 ft 202 kts 268°
2026-05-09 00:44 40.44495 -111.52215 10051 ft 206 kts 268°
2026-05-09 00:44 40.44355 -111.54065 10832 ft 207 kts 268°
2026-05-09 00:44 40.44215 -111.55974 11615 ft 213 kts 268°
2026-05-09 00:44 40.44089 -111.57938 12308 ft 217 kts 274°
2026-05-09 00:45 40.44544 -111.59819 12908 ft 225 kts 294°
2026-05-09 00:45 40.45133 -111.61884 12889 ft 256 kts 291°
2026-05-09 00:45 40.45831 -111.64183 13013 ft 285 kts 293°
2026-05-09 00:45 40.46609 -111.66701 13225 ft 310 kts 291°
2026-05-09 00:46 40.47432 -111.69458 13269 ft 335 kts 291°
2026-05-09 00:46 40.48292 -111.72372 13849 ft 343 kts 292°
2026-05-09 00:46 40.49145 -111.75255 14574 ft 345 kts 292°
2026-05-09 00:46 40.50031 -111.78209 15160 ft 349 kts 292°
2026-05-09 00:47 40.50920 -111.81195 15794 ft 352 kts 292°
2026-05-09 00:47 40.51813 -111.84200 16460 ft 355 kts 292°
2026-05-09 00:47 40.52713 -111.87247 17150 ft 359 kts 291°
2026-05-09 00:47 40.53621 -111.90318 17839 ft 363 kts 291°
2026-05-09 00:48 40.54546 -111.93435 18501 ft 367 kts 291°
2026-05-09 00:48 40.55479 -111.96586 19120 ft 371 kts 291°
2026-05-09 00:48 40.56099 -111.98688 19550 ft 373 kts 291°
2026-05-09 00:48 40.57348 -112.02927 20422 ft 377 kts 291°
2026-05-09 00:49 40.58300 -112.06160 21097 ft 381 kts 291°
2026-05-09 00:49 40.59260 -112.09419 21772 ft 384 kts 291°
2026-05-09 00:49 40.60228 -112.12715 22434 ft 388 kts 290°
2026-05-09 00:49 40.60887 -112.14965 22842 ft 392 kts 290°
2026-05-09 00:50 40.61872 -112.18323 23550 ft 395 kts 290°
2026-05-09 00:50 40.62856 -112.21668 24093 ft 399 kts 290°
2026-05-09 00:50 40.63856 -112.25101 24669 ft 402 kts 290°
2026-05-09 00:50 40.64860 -112.28557 25218 ft 405 kts 290°
2026-05-09 00:51 40.65877 -112.32039 25755 ft 409 kts 290°
2026-05-09 00:51 40.66901 -112.35544 26280 ft 412 kts 290°
2026-05-09 00:51 40.67932 -112.39089 26812 ft 415 kts 290°
2026-05-09 00:51 40.68968 -112.42660 27333 ft 418 kts 290°
2026-05-09 00:52 40.70013 -112.46264 27838 ft 422 kts 290°
2026-05-09 00:52 40.71021 -112.49920 28292 ft 425 kts 286°
2026-05-09 00:52 40.71670 -112.53732 28717 ft 428 kts 278°
2026-05-09 00:52 40.71922 -112.57603 29213 ft 431 kts 271°
2026-05-09 00:53 40.71889 -112.61566 29686 ft 434 kts 269°
2026-05-09 00:53 40.71858 -112.65554 30136 ft 437 kts 270°
2026-05-09 00:53 40.71838 -112.69576 30562 ft 440 kts 270°
2026-05-09 00:53 40.71806 -112.73612 31019 ft 441 kts 270°
2026-05-09 00:54 40.71763 -112.77630 31736 ft 436 kts 270°
2026-05-09 00:54 40.71725 -112.81608 32403 ft 432 kts 270°
2026-05-09 00:54 40.71691 -112.85563 33030 ft 430 kts 270°
2026-05-09 00:54 40.71654 -112.89499 33654 ft 428 kts 270°
2026-05-09 00:55 40.71613 -112.93404 34250 ft 426 kts 270°
2026-05-09 00:55 40.71570 -112.97303 34823 ft 424 kts 270°
2026-05-09 00:55 40.71529 -113.01181 35401 ft 422 kts 270°
2026-05-09 00:55 40.71487 -113.05036 35985 ft 420 kts 270°
2026-05-09 00:56 40.71443 -113.08882 36580 ft 418 kts 270°
2026-05-09 00:56 40.71398 -113.12665 37168 ft 416 kts 270°
2026-05-09 00:56 40.71352 -113.16466 37808 ft 413 kts 270°
2026-05-09 00:56 40.71305 -113.20310 37887 ft 423 kts 270°
2026-05-09 00:57 40.71256 -113.24237 37884 ft 434 kts 270°
2026-05-09 00:57 40.71202 -113.28257 37890 ft 444 kts 270°
2026-05-09 00:57 40.71088 -113.36555 37904 ft 459 kts 270°
2026-05-09 00:58 40.70966 -113.45080 37889 ft 469 kts 270°
2026-05-09 00:58 40.70834 -113.53748 37901 ft 476 kts 270°
2026-05-09 00:59 40.70696 -113.62417 37929 ft 477 kts 270°
2026-05-09 00:59 40.70551 -113.71159 37957 ft 477 kts 270°
2026-05-09 01:00 40.70399 -113.79847 37984 ft 468 kts 270°
2026-05-09 01:00 40.70244 -113.88450 38009 ft 470 kts 270°
2026-05-09 01:01 40.70081 -113.97061 38021 ft 470 kts 270°
2026-05-09 01:01 40.69912 -114.05680 38013 ft 471 kts 270°
2026-05-09 01:02 40.69737 -114.14252 38006 ft 467 kts 270°
2026-05-09 01:02 40.69556 -114.22835 37995 ft 467 kts 270°
2026-05-09 01:03 40.69368 -114.31404 37987 ft 468 kts 270°
2026-05-09 01:03 40.69176 -114.39969 37970 ft 467 kts 270°
2026-05-09 01:04 40.68977 -114.48466 37971 ft 466 kts 270°
2026-05-09 01:04 40.68772 -114.57000 37976 ft 466 kts 270°
2026-05-09 01:05 40.68559 -114.65545 37990 ft 466 kts 270°
2026-05-09 01:06 40.68228 -114.78350 38000 ft 465 kts 269°
2026-05-09 01:06 40.67132 -114.86774 37986 ft 470 kts 256°
2026-05-09 01:07 40.64452 -114.94672 37984 ft 478 kts 243°
2026-05-09 01:07 40.60259 -115.01576 37984 ft 489 kts 230°
2026-05-09 01:08 40.55340 -115.07710 38000 ft 490 kts 229°
2026-05-09 01:08 40.50400 -115.13897 38005 ft 490 kts 229°
2026-05-09 01:09 40.45440 -115.20058 38003 ft 490 kts 229°
2026-05-09 01:09 40.40483 -115.26228 38004 ft 490 kts 229°
2026-05-09 01:10 40.35558 -115.32330 38002 ft 490 kts 229°
2026-05-09 01:10 40.30582 -115.38492 37990 ft 492 kts 229°
2026-05-09 01:11 40.25596 -115.44644 37988 ft 492 kts 229°
2026-05-09 01:11 40.20599 -115.50804 37976 ft 491 kts 229°
2026-05-09 01:12 40.15629 -115.56903 37974 ft 490 kts 229°
2026-05-09 01:12 40.10654 -115.63031 37976 ft 492 kts 229°
2026-05-09 01:13 40.05671 -115.69113 37944 ft 494 kts 229°
2026-05-09 01:13 40.00649 -115.75258 37954 ft 495 kts 229°
2026-05-09 01:14 39.95620 -115.81383 37953 ft 493 kts 228°
2026-05-09 01:14 39.90603 -115.87493 37954 ft 494 kts 229°
2026-05-09 01:15 39.85568 -115.93602 37946 ft 495 kts 229°
2026-05-09 01:15 39.80521 -115.99719 37941 ft 495 kts 229°
2026-05-09 01:16 39.75467 -116.05827 37946 ft 495 kts 229°
2026-05-09 01:16 39.70444 -116.11888 37938 ft 496 kts 229°
2026-05-09 01:17 39.62852 -116.21023 37942 ft 496 kts 229°
2026-05-09 01:17 39.57785 -116.27106 37941 ft 495 kts 229°
2026-05-09 01:18 39.52749 -116.33134 37948 ft 496 kts 228°
2026-05-09 01:18 39.47672 -116.39207 37961 ft 498 kts 228°
2026-05-09 01:19 39.42571 -116.45286 37954 ft 498 kts 228°
2026-05-09 01:19 39.37458 -116.51375 37972 ft 499 kts 228°
2026-05-09 01:20 39.32337 -116.57456 37968 ft 499 kts 228°
2026-05-09 01:20 39.27249 -116.63485 37979 ft 499 kts 228°
2026-05-09 01:21 39.22132 -116.69540 37975 ft 499 kts 228°
2026-05-09 01:21 39.17004 -116.75593 37978 ft 501 kts 228°
2026-05-09 01:22 39.11852 -116.81660 37984 ft 501 kts 227°
2026-05-09 01:22 39.06699 -116.87718 37982 ft 501 kts 227°
2026-05-09 01:23 39.01537 -116.93774 37991 ft 502 kts 227°
2026-05-09 01:23 38.96368 -116.99824 38000 ft 502 kts 227°
2026-05-09 01:24 38.91232 -117.05825 37993 ft 503 kts 227°
2026-05-09 01:24 38.86032 -117.11887 38011 ft 504 kts 227°
2026-05-09 01:25 38.80836 -117.17933 38008 ft 505 kts 227°
2026-05-09 01:25 38.75634 -117.23972 38011 ft 505 kts 227°
2026-05-09 01:26 38.70462 -117.29962 38020 ft 502 kts 227°
2026-05-09 01:26 38.65266 -117.35975 38010 ft 505 kts 227°
2026-05-09 01:27 38.60057 -117.41982 38009 ft 505 kts 227°
2026-05-09 01:27 38.54827 -117.48010 37977 ft 507 kts 226°
2026-05-09 01:28 38.49577 -117.54039 37995 ft 508 kts 226°
2026-05-09 01:28 38.44323 -117.60066 37976 ft 508 kts 226°
2026-05-09 01:29 38.39058 -117.66091 37977 ft 508 kts 226°
2026-05-09 01:29 38.33826 -117.72069 37972 ft 508 kts 226°
2026-05-09 01:30 38.28546 -117.78086 37950 ft 509 kts 226°
2026-05-09 01:30 38.23257 -117.84104 37947 ft 509 kts 226°
2026-05-09 01:31 38.17966 -117.90111 37931 ft 508 kts 226°
2026-05-09 01:31 38.12672 -117.96107 37930 ft 510 kts 226°
2026-05-09 01:32 38.07408 -118.02060 37921 ft 509 kts 226°
2026-05-09 01:32 38.02102 -118.08048 37926 ft 511 kts 226°
2026-05-09 01:33 37.96771 -118.14050 37926 ft 511 kts 226°
2026-05-09 01:33 37.91442 -118.20039 37932 ft 512 kts 226°
2026-05-09 01:34 37.86152 -118.25972 37916 ft 511 kts 226°
2026-05-09 01:34 37.80813 -118.31949 37921 ft 512 kts 226°
2026-05-09 01:35 37.75508 -118.37874 37916 ft 507 kts 226°
2026-05-09 01:35 37.70203 -118.43789 37952 ft 511 kts 225°
2026-05-09 01:36 37.65771 -118.48723 38010 ft 512 kts 225°
2026-05-09 01:36 37.60417 -118.54667 38083 ft 513 kts 225°
2026-05-09 01:37 37.55058 -118.60611 38124 ft 513 kts 225°
2026-05-09 01:37 37.49727 -118.66505 38154 ft 512 kts 225°
2026-05-09 01:38 37.44354 -118.72443 38112 ft 514 kts 225°
2026-05-09 01:38 37.38723 -118.78054 38097 ft 520 kts 216°
2026-05-09 01:39 37.32050 -118.81774 38079 ft 528 kts 202°
2026-05-09 01:39 37.25109 -118.84876 38058 ft 528 kts 205°
2026-05-09 01:40 37.18277 -118.88259 38067 ft 529 kts 204°
2026-05-09 01:40 37.11343 -118.91422 38068 ft 530 kts 204°
2026-05-09 01:41 37.04470 -118.94741 38071 ft 530 kts 204°
2026-05-09 01:41 36.97606 -118.97919 38061 ft 530 kts 204°
2026-05-09 01:42 36.90714 -119.01187 38060 ft 529 kts 204°
2026-05-09 01:42 36.83803 -119.04408 38032 ft 531 kts 204°
2026-05-09 01:43 36.76885 -119.07653 38026 ft 531 kts 204°
2026-05-09 01:43 36.69955 -119.10886 37998 ft 532 kts 204°
2026-05-09 01:44 36.63062 -119.14098 37982 ft 533 kts 204°
2026-05-09 01:44 36.56120 -119.17328 37975 ft 533 kts 204°
2026-05-09 01:45 36.49165 -119.20554 37971 ft 532 kts 204°
2026-05-09 01:45 36.42207 -119.23781 37966 ft 535 kts 203°
2026-05-09 01:46 36.35234 -119.27003 37969 ft 535 kts 203°
2026-05-09 01:46 36.28251 -119.30227 37970 ft 535 kts 203°
2026-05-09 01:47 36.21276 -119.33439 37965 ft 535 kts 203°
2026-05-09 01:47 36.14287 -119.36653 37961 ft 536 kts 203°
2026-05-09 01:48 36.07385 -119.39817 37480 ft 517 kts 203°
2026-05-09 01:48 36.04079 -119.41327 36821 ft 497 kts 203°
2026-05-09 01:48 36.00892 -119.42789 36177 ft 481 kts 203°
2026-05-09 01:49 35.97775 -119.44220 35548 ft 475 kts 203°
2026-05-09 01:49 35.94653 -119.45651 34922 ft 480 kts 203°
2026-05-09 01:49 35.91514 -119.47083 34288 ft 483 kts 202°
2026-05-09 01:49 35.88352 -119.48523 33618 ft 485 kts 202°
2026-05-09 01:50 35.85173 -119.49973 32973 ft 487 kts 202°
2026-05-09 01:50 35.81980 -119.51429 32338 ft 489 kts 202°
2026-05-09 01:50 35.78781 -119.52885 31680 ft 491 kts 202°
2026-05-09 01:50 35.75559 -119.54349 31031 ft 493 kts 202°
2026-05-09 01:51 35.72373 -119.55797 30385 ft 496 kts 202°
2026-05-09 01:51 35.69151 -119.57260 29686 ft 492 kts 202°
2026-05-09 01:51 35.65969 -119.58700 29035 ft 484 kts 202°
2026-05-09 01:51 35.62822 -119.60127 28402 ft 478 kts 202°
2026-05-09 01:52 35.59718 -119.61534 27776 ft 472 kts 202°
2026-05-09 01:52 35.56652 -119.62921 27156 ft 467 kts 202°
2026-05-09 01:52 35.53620 -119.64291 26543 ft 461 kts 202°
2026-05-09 01:52 35.50630 -119.65642 25944 ft 455 kts 202°
2026-05-09 01:53 35.47671 -119.66978 25347 ft 450 kts 202°
2026-05-09 01:53 35.44748 -119.68296 24756 ft 446 kts 202°
2026-05-09 01:53 35.41847 -119.69603 24170 ft 440 kts 202°
2026-05-09 01:53 35.38989 -119.70890 23600 ft 435 kts 202°
2026-05-09 01:54 35.36162 -119.72162 22986 ft 431 kts 202°
2026-05-09 01:54 35.33361 -119.73422 22421 ft 428 kts 202°
2026-05-09 01:54 35.30605 -119.74661 21880 ft 425 kts 202°
2026-05-09 01:54 35.27835 -119.75904 21322 ft 423 kts 202°
2026-05-09 01:55 35.25082 -119.77139 20764 ft 419 kts 201°
2026-05-09 01:55 35.22353 -119.78362 20213 ft 416 kts 201°
2026-05-09 01:55 35.19642 -119.79577 19674 ft 413 kts 202°
2026-05-09 01:55 35.16948 -119.80783 19132 ft 411 kts 201°
2026-05-09 01:56 35.14272 -119.81981 18589 ft 409 kts 202°
2026-05-09 01:56 35.11608 -119.83172 18030 ft 406 kts 201°
2026-05-09 01:56 35.08967 -119.84351 17493 ft 403 kts 201°
2026-05-09 01:56 35.06353 -119.85518 16965 ft 398 kts 201°
2026-05-09 01:57 35.03753 -119.86679 16434 ft 396 kts 202°
2026-05-09 01:57 35.01182 -119.87825 15923 ft 393 kts 202°
2026-05-09 01:57 34.98662 -119.88948 15407 ft 389 kts 201°
2026-05-09 01:57 34.96131 -119.90074 14900 ft 387 kts 201°
2026-05-09 01:58 34.93628 -119.91189 14393 ft 380 kts 201°
2026-05-09 01:58 34.91144 -119.92294 13896 ft 379 kts 201°
2026-05-09 01:58 34.88684 -119.93384 13365 ft 374 kts 201°
2026-05-09 01:58 34.86247 -119.94469 12884 ft 372 kts 201°
2026-05-09 01:59 34.83827 -119.95548 12393 ft 369 kts 201°
2026-05-09 01:59 34.81418 -119.96613 11906 ft 366 kts 201°
2026-05-09 01:59 34.79029 -119.97666 11424 ft 364 kts 201°
2026-05-09 01:59 34.76732 -119.98681 10959 ft 340 kts 201°
2026-05-09 02:00 34.74578 -119.99638 10520 ft 320 kts 201°
2026-05-09 02:00 34.72537 -120.00544 10116 ft 305 kts 201°
2026-05-09 02:00 34.70567 -120.01416 9700 ft 298 kts 201°
2026-05-09 02:00 34.68628 -120.02273 9302 ft 295 kts 201°
2026-05-09 02:01 34.66695 -120.03127 8919 ft 295 kts 201°
2026-05-09 02:01 34.64770 -120.03977 8533 ft 295 kts 201°
2026-05-09 02:01 34.62862 -120.04820 8152 ft 295 kts 201°
2026-05-09 02:01 34.60952 -120.05662 7770 ft 283 kts 200°
2026-05-09 02:02 34.59185 -120.06439 7385 ft 259 kts 201°
2026-05-09 02:02 34.57531 -120.07169 7057 ft 249 kts 201°
2026-05-09 02:02 34.55907 -120.07886 6734 ft 249 kts 201°
2026-05-09 02:02 34.54277 -120.08604 6417 ft 243 kts 200°
2026-05-09 02:03 34.52713 -120.09111 6027 ft 226 kts 184°
2026-05-09 02:03 34.51192 -120.09089 5771 ft 211 kts 177°
2026-05-09 02:03 34.49741 -120.09031 5522 ft 207 kts 178°
2026-05-09 02:03 34.48316 -120.09002 5258 ft 203 kts 179°
2026-05-09 02:04 34.46901 -120.08978 4951 ft 202 kts 178°
2026-05-09 02:04 34.45500 -120.08949 4632 ft 201 kts 179°
2026-05-09 02:04 34.44105 -120.08821 4271 ft 201 kts 165°
2026-05-09 02:04 34.42973 -120.07954 3973 ft 194 kts 130°
2026-05-09 02:05 34.42399 -120.06537 3681 ft 186 kts 96°
2026-05-09 02:05 34.42359 -120.04983 3403 ft 186 kts 84°
2026-05-09 02:05 34.42390 -120.03404 3102 ft 187 kts 84°
2026-05-09 02:05 34.42422 -120.01836 2807 ft 185 kts 84°
2026-05-09 02:06 34.42455 -120.00271 2515 ft 185 kts 84°
2026-05-09 02:06 34.42483 -119.98737 2181 ft 175 kts 84°
2026-05-09 02:06 34.42507 -119.97349 1912 ft 151 kts 85°
2026-05-09 02:07 34.42554 -119.94948 1534 ft 141 kts 86°
2026-05-09 02:07 34.42578 -119.93768 1351 ft 138 kts 88°
2026-05-09 02:07 34.42602 -119.92619 1180 ft 135 kts 90°
2026-05-09 02:07 34.42627 -119.91475 1002 ft 136 kts 91°
2026-05-09 02:08 34.42655 -119.90326 790 ft 137 kts 90°
2026-05-09 02:08 34.42670 -119.89197 584 ft 131 kts 91°
2026-05-09 02:08 34.42695 -119.88114 430 ft 127 kts 90°
2026-05-09 02:08 34.42716 -119.87073 273 ft 123 kts 91°
2026-05-09 02:09 34.42736 -119.86042 113 ft 122 kts 90°
2026-05-09 02:09 34.42760 -119.85040 16 ft 112 kts 91°
2026-05-09 02:09 34.42774 -119.84313 18 ft 55 kts 88°
2026-05-09 02:09 34.42784 -119.83890 19 ft 43 kts 88°
2026-05-09 02:10 34.42791 -119.83612 15 ft 23 kts 88°
2026-05-09 02:10 34.42840 -119.83523 16 ft 12 kts
2026-05-09 02:10 34.42924 -119.83530 16 ft 12 kts 354°
2026-05-09 02:10 34.43016 -119.83533 16 ft 14 kts 359°
2026-05-09 02:11 34.43113 -119.83537 15 ft 14 kts 358°
2026-05-09 02:11 34.43198 -119.83534 17 ft 8 kts 27°
2026-05-09 02:11 34.43224 -119.83485 19 ft 6 kts 49°
2026-05-09 02:11 34.43257 -119.83484 18 ft 3 kts 11°
2026-05-09 02:12 34.43259 -119.83478 18 ft 0 kts 70°